Wind from 100 at 3 knots

Air temperature 3.0° C
Visibility: greater than 5.4 NM
Dewpoint 1.0° C
Present weather: Light rain.

Last reported at 2014-Apr-16 20:20 UTC.
Time now 2014-Apr-16 22:32 UTC

Location: N 65°48' E 015°05'.
View on Google Maps.

See reports from other nearby stations

Tides Stations Pressure Air Temp Water Temp Dewpoint Dewpoint depression Visibility Wind Speed Wind Dir Waves Ship positions

  
sailing weather and tide predictions

HEMAVAN weather

date/time (UTC)wind fromknots sea level pressurealtimeterstation pressurevisibilityair tempwater tempwave heightnotes
2014-Apr-16 21:20 120 2 5.4 3.0 Drizzle.
2014-Apr-16 20:50 5.4 3.0 Light drizzle.
2014-Apr-16 20:20 100 3 5.4 3.0 Light rain.
2014-Apr-16 19:50 060 6 5.4 3.0 Drizzle.
2014-Apr-16 19:20 020 3 4.9 3.0 Light rain.
2014-Apr-16 18:50 010 6 gusting 18 4.3 2.0 Light rain.
2014-Apr-16 18:20 5.4 2.0 Light rain.
2014-Apr-16 17:50 5.4 3.0 Drizzle.
2014-Apr-16 17:20 230 8 5.4 4.0 Drizzle.
2014-Apr-16 16:50 230 6 5.4 4.0 Light rain.
2014-Apr-16 16:20 230 7 5.4 3.0 Drizzle.
2014-Apr-16 15:50 170 5 5.4 3.0 Drizzle.
2014-Apr-16 15:20 170 5 5.4 3.0 Light rain.
2014-Apr-16 14:50 200 6 3.2 3.0 Light rain.
2014-Apr-16 14:20 200 8 gusting 19 5.4 3.0 Drizzle.
2014-Apr-16 13:50 180 10 4.9 2.0 Light rain.
2014-Apr-16 13:20 180 7 4.9 3.0 Light rain.
2014-Apr-16 12:50 200 5 5.4 2.0 Light rain.
2014-Apr-16 12:20 100 7 5.4 2.0 Light rain.
2014-Apr-16 11:50 090 5 5.4 2.0 Light rain.
2014-Apr-16 11:20 180 7 2.7 2.0 Rain.
2014-Apr-16 10:50 140 5 5.4 2.0 Light rain.
2014-Apr-16 10:20 140 5 5.4 2.0 Light rain.
2014-Apr-16 09:50 160 7 5.4 3.0
2014-Apr-16 09:20 160 7 5.4 2.0 Light drizzle.
2014-Apr-16 08:50 150 6 5.4 2.0
2014-Apr-16 08:20 150 4 5.4 2.0 Precipitation.
2014-Apr-16 07:50 5.4 2.0
2014-Apr-16 07:20 5.4 2.0 Precipitation.
2014-Apr-16 06:50 150 4 5.4 1.0 Light rain.
2014-Apr-16 06:20 2.5 1.0 Light snow.
2014-Apr-16 05:50 060 5 2.3 1.0 Light snow.
2014-Apr-16 05:20 3.2-0.0 Light rain snow.
2014-Apr-16 04:50 120 6 3.8-1.0 Light snow.
2014-Apr-16 04:20 130 5 3.8-2.0 Light snow.
2014-Apr-16 03:50 130 6 5.4-2.0 Light snow.
2014-Apr-16 03:20 140 7 5.4-2.0 Freezing precipitation.
2014-Apr-16 02:50 130 7 5.4-2.0 Light snow.
2014-Apr-16 02:20 140 6 3.2-2.0 Light snow.
2014-Apr-16 01:50 140 6 3.2-2.0 Light snow.
2014-Apr-16 01:20 120 6 2.7-2.0 Light snow.
2014-Apr-16 00:50 140 4 2.7-2.0 Light snow.
2014-Apr-16 00:20 150 5 3.2-2.0 Light snow.
2014-Apr-15 23:50 150 2 5.4-2.0 Light snow.
2014-Apr-15 23:20 150 4 5.4-2.0 Light snow.
2014-Apr-15 22:50 140 4 5.4-2.0
2014-Apr-15 22:20 150 2 5.4-2.0
2014-Apr-15 21:50 5.4-2.0
2014-Apr-15 21:20 5.4-2.0 Light snow.
2014-Apr-15 20:50 5.4-2.0
2014-Apr-15 20:20 5.4-2.0
2014-Apr-15 19:50 5.4-2.0
2014-Apr-15 19:20 5.4-2.0
2014-Apr-15 18:50 290 3 5.4-1.0
2014-Apr-15 18:20 290 3 5.4-1.0
2014-Apr-15 17:50 300 4 5.4-1.0
2014-Apr-15 17:20 290 6 5.4-1.0
2014-Apr-15 16:50 300 7 5.4-1.0 Freezing precipitation.
2014-Apr-15 16:20 320 10 5.4-1.0
2014-Apr-15 15:50 320 11 5.4-0.0
2014-Apr-15 15:20 310 11 5.4-0.0 Light snow.
2014-Apr-15 14:50 300 12 5.4-1.0
2014-Apr-15 14:20 300 10 5.4-0.0
2014-Apr-15 13:50 290 12 5.4-0.0
2014-Apr-15 13:20 310 13 5.4-1.0 Light snow.
2014-Apr-15 12:50 310 10 2.1-1.0 Light snow.
2014-Apr-15 12:20 290 10 5.4-0.0 Light snow.
2014-Apr-15 11:50 310 12 5.4-0.0
2014-Apr-15 11:20 280 11 5.4-0.0
2014-Apr-15 10:50 300 9 5.4-0.0
2014-Apr-15 10:20 330 14 5.4-1.0
2014-Apr-15 09:50 310 11 5.4-1.0
2014-Apr-15 09:20 300 10 5.4-1.0
2014-Apr-15 08:50 310 9 0.9-2.0 Light snow.
2014-Apr-15 08:20 280 10 5.4-1.0 Light snow.
2014-Apr-15 07:50 290 11 5.4-1.0 Light snow.
2014-Apr-15 07:20 300 10 5.4-1.0
2014-Apr-15 06:50 310 10 4.3-1.0 Light snow.
2014-Apr-15 06:20 290 6 5.4-1.0 Light snow.
2014-Apr-15 05:50 270 4 5.4-1.0
2014-Apr-15 05:20 5.4-2.0 Snow grains.
2014-Apr-15 04:50 340 3 5.4-2.0
2014-Apr-15 04:20 020 6 5.4-2.0
2014-Apr-15 03:50 340 7 5.4-2.0
2014-Apr-15 03:20 5.4-3.0
2014-Apr-15 02:50 290 6 5.4-2.0
2014-Apr-15 02:20 300 4 5.4-2.0
2014-Apr-15 01:50 290 8 5.4-2.0
2014-Apr-15 01:20 300 7 5.4-2.0
2014-Apr-15 00:50 320 10 5.4-2.0
2014-Apr-15 00:20 320 11 5.4-2.0
2014-Apr-14 23:50 320 10 5.4-2.0
2014-Apr-14 23:20 290 11 5.4-1.0
2014-Apr-14 22:50 290 11 5.4-1.0
2014-Apr-14 22:20 310 12 5.4-1.0